GW3853 Weather Reports


time (UTC)temp
C
wind
direction
speed
KPH
gust
KPH
rain 1hr
cm
rain 24hr
cm
rain mn
cm
humidity
%
barometer
mb
20260504211510 17 203 1.6 11.3 0.00 0.10 0.10 50 1005.2
20260504210019 17 359 3.2 11.3 0.00 0.10 0.10 49 1005.1
20260504204516 17 34 1.6 6.4 0.00 0.10 0.10 51 1005.2
20260504203010 17 209 6.4 11.3 0.00 0.10 0.10 49 1005.1
20260504201507 16 4 3.2 24.1 0.00 0.10 0.10 50 1005.1
20260504200012 16 55 6.4 20.9 0.00 0.10 0.10 51 1005.2
20260504194516 16 237 3.2 12.9 0.00 0.10 0.10 53 1005.3
20260504193021 16 145 3.2 12.9 0.00 0.10 0.10 53 1005.6
20260504191507 16 359 6.4 17.7 0.00 0.10 0.10 54 1005.4
20260504190008 16 7 6.4 11.3 0.00 0.10 0.10 59 1005.4
20260504184513 16 201 3.2 12.9 0.00 0.10 0.10 60 1005.4
20260504183020 15 34 4.8 12.9 0.00 0.10 0.10 67 1005.6
20260504181522 13 226 3.2 8.0 0.00 0.10 0.10 73 1005.7
20260504180007 12 34 1.6 8.0 0.03 0.10 0.10 74 1005.7
20260504174513 12 72 1.6 11.3 0.05 0.10 0.10 78 1006.1
20260504173020 11 314 3.2 11.3 0.08 0.10 0.10 85 1006.1
20260504171524 10 41 1.6 6.4 0.10 0.10 0.10 82 1006.3
20260504081520 1 259 0.0 3.2 0.00 0.00 0.00 80 1007.4
20260504050012 0 264 0.0 3.2 0.00 0.00 0.00 85 1007.2
20260504044511 0 264 0.0 3.2 0.00 0.00 0.00 84 1007.2
20260504043011 1 264 0.0 0.0 0.00 0.00 0.00 82 1007.3
20260504041507 1 264 0.0 3.2 0.00 0.00 0.00 82 1007.3
20260504040014 1 264 0.0 3.2 0.00 0.00 0.00 82 1007.2
20260504034504 1 264 0.0 3.2 0.00 0.00 0.00 80 1007.0
20260504033011 1 264 0.0 3.2 0.00 0.00 0.00 79 1007.0
20260504031504 1 264 0.0 3.2 0.00 0.00 0.00 77 1007.0
20260504030016 2 264 0.0 3.2 0.00 0.00 0.00 76 1006.9
20260504024506 2 264 0.0 3.2 0.00 0.00 0.00 74 1006.9
20260504023012 2 264 0.0 3.2 0.00 0.00 0.00 73 1006.8
20260504021506 2 264 0.0 3.2 0.00 0.00 0.00 72 1006.8
20260504020016 3 264 0.0 3.2 0.00 0.00 0.00 70 1006.9
20260504014506 3 264 0.0 3.2 0.00 0.03 0.00 69 1006.8
20260504013017 4 264 0.0 3.2 0.00 0.03 0.00 66 1006.7
20260504011515 5 264 0.0 3.2 0.00 0.03 0.00 62 1006.7
20260504010012 5 224 0.0 3.2 0.00 0.03 0.00 60 1006.6
20260504004508 6 174 0.0 3.2 0.00 0.03 0.00 57 1006.2
20260504003008 6 186 0.0 3.2 0.00 0.03 0.00 56 1005.9
20260504001510 7 359 0.0 4.8 0.00 0.03 0.00 53 1005.7
20260504000008 7 4 0.0 6.4 0.00 0.03 0.00 51 1005.6
20260503234509 7 124 1.6 11.3 0.00 0.05 0.00 47 1005.3
20260503233015 8 349 6.4 16.1 0.00 0.05 0.00 45 1005.1
20260503231514 8 346 4.8 11.3 0.00 0.08 0.00 45 1004.8
20260503230016 8 108 1.6 4.8 0.00 0.08 0.00 50 1004.7
20260503224514 8 333 3.2 8.0 0.00 0.08 0.00 44 1004.6
20260503223018 9 7 1.6 17.7 0.00 0.08 0.00 42 1004.5
20260503221511 9 267 3.2 11.3 0.00 0.10 0.00 44 1004.2
20260503220017 10 312 4.8 12.9 0.00 0.10 0.00 42 1004.0
20260503214521 10 6 8.0 19.3 0.00 0.10 0.00 40 1003.9
20260503213014 10 116 4.8 19.3 0.00 0.10 0.00 43 1003.7